Regional Weather Roundup
Issued by NWS Newport/Morehead, NC

Current Version | Previous Version | Text Only | Print | Product List | Glossary Off
Versions: 1 2 3 4 5 6 7 8 9 10 11 12 13 14 15 16 17 18 19 20 21 22 23 24 25 26 27 28 29 30 31 32 33 34 35 36 37 38 39 40 41 42 43 44 45 46 47 48 49 50
000 ASUS42 KMHX 300125 RWRMHX WEATHER ROUNDUP FOR EASTERN NORTH CAROLINA NATIONAL WEATHER SERVICE NEWPORT/MOREHEAD CITY NC 900 PM EDT SUN MAY 29 2016 NOTE: "FAIR" INDICATES FEW OR NO CLOUDS BELOW 12,000 FEET WITH NO SIGNIFICANT WEATHER AND/OR OBSTRUCTIONS TO VISIBILITY NCZ015>017-031-032-045>047-102-103-300200- NORTH COAST CITY SKY/WX TMP DP RH WIND PRES REMARKS EDENTON CLOUDY N/A N/A N/A SE7 30.05R ELIZABETH CITY CLOUDY 76 72 87 SE5 30.05S KITTY HAWK LGT RAIN 75 71 86 SE3 30.05R MANTEO NOT AVBL $$ NCZ045>047-081-094-103-104-300200- CENTRAL COAST CITY SKY/WX TMP DP RH WIND PRES REMARKS FRISCO MOCLDY 77 74 90 S10 30.05S $$ NCZ095-097-098-100-101-300200- SOUTHERN COAST CITY SKY/WX TMP DP RH WIND PRES REMARKS BEAUFORT MOCLDY 77 73 87 SE6 30.03S CEDAR ISLAND NOT AVBL JACKSONVILLE MOCLDY 76 73 91 SE9 30.01R PINEY ISLAND MOCLDY N/A N/A N/A SE6 30.03S WILMINGTON LGT RAIN 75 73 93 SE3 29.99S $$ NCZ011>013-027>030-043-044-078>080-089-090>093-098-300200- COASTAL PLAIN CITY SKY/WX TMP DP RH WIND PRES REMARKS AHOSKIE PTCLDY 75 71 89 CALM 30.03S CLINTON CLOUDY 74 73 99 CALM 30.01R ELIZABETHTOWN CLOUDY 74 71 91 CALM 29.99R GOLDSBORO CLOUDY 74 74 100 E6 30.00S GREENVILLE CLOUDY 79 72 78 SE9 30.04S HAVELOCK PTCLDY 76 72 87 SE3 30.04R KENANSVILLE CLOUDY 73 72 97 CALM 30.02S KINSTON CLOUDY 75 72 88 S3 30.03R NEW BERN MOCLDY 76 71 85 SE3 30.04R RICHLANDS PTCLDY 73 72 96 E3 30.01F ROCKY MOUNT PTCLDY 74 72 93 CALM 30.02R WASHINGTON CLOUDY 77 71 82 S7 30.03R WHITEVILLE CLOUDY 73 70 89 CALM 29.97S $$ AMZ130-135-150-152-154-156-158-170-250-252-270-ANZ085-086-088-633-658-670-300200- MARINE OBSERVATIONS STATION/POSITION TIME TEMP WIND PRES WAVE SWELL AIR SEA DIR/SP/G HT/PER HT/PER (UTC) (F) (DEG/KT/KT) (MB) (FT/S) (FT/S) CHESAPEAKE LIGHT 0100 72 150/ 18/ 18 1018.4 64 E VA BEACH 0050 68 64 150/ 8/ 8 1018.4 4/ 6 3/ 6 DUCK 0100 62 1017.1 2 E DUCK 0011 65 N/A 3/ 6 OREGON INLET 0100 80 1017.7 13E OREGON INLT 0100 70 N/A 5/ 7 HATTERAS CG 0100 78 1017.1 DIAMOND BUOY 0050 78 82 170/ 21/ 25 1017.1 5/ 8 2/ 9 CAPE LOOKOUT 0100 76 150/ 10/ 11 1016.6 BEAUFORT LAB 0100 76 1016.1 30 SE NEW RVR IN 0025 75 N/A 6/ 6 27 SE WRIGHTSVLE 0108 78 76 160/ 14/ 19 1015.1 5 SE WRIGHTSVLE 0008 77 76 160/ 10/ 12 1015.9 225 S CAPE HAT 0050 76 76 130/ 14/ 17 1018.2 5/ 8 3/ 8 41 SE CHARLESTON 0050 73 78 190/ 14/ 16 1012.9 6/ 6 3/ 8 $$

USA.gov is the U.S. government's official web portal to all federal, state and local government web resources and services.